Time,TemperatureF,DewpointF,PressureIn,WindDirection,WindDirectionDegrees,WindSpeedMPH,WindSpeedGustMPH,Humidity,HourlyPrecipIn,Conditions,Clouds,dailyrainin,SoftwareType,DateUTC
2013-02-14 00:02:00,30.7,30.2,28.54,NE,45,0.0,0.0,98,0.00,CLR,,0.00,WeatherDisplay:10.37,2013-02-14 06:02:00,
2013-02-14 00:07:00,30.7,30.2,28.55,NE,45,0.0,0.0,98,0.00,CLR,,0.00,WeatherDisplay:10.37,2013-02-14 06:07:00,
2013-02-14 00:12:00,30.9,30.4,28.55,NE,45,0.0,0.0,98,0.00,CLR,,0.00,WeatherDisplay:10.37,2013-02-14 06:12:00,
2013-02-14 00:17:00,30.9,30.4,28.55,NE,45,0.0,0.0,98,0.00,CLR,,0.00,WeatherDisplay:10.37,2013-02-14 06:17:00,
2013-02-14 00:22:00,30.9,30.2,28.55,NW,315,0.0,0.0,97,0.00,CLR,,0.00,WeatherDisplay:10.37,2013-02-14 06:22:00,
2013-02-14 00:27:00,30.7,30.2,28.55,NW,315,0.0,0.0,98,0.00,CLR,,0.00,WeatherDisplay:10.37,2013-02-14 06:27:00,
2013-02-14 00:32:00,30.9,30.2,28.55,NW,315,0.0,0.0,97,0.00,CLR,,0.00,WeatherDisplay:10.37,2013-02-14 06:32:00,
2013-02-14 00:37:00,30.7,30.0,28.55,NW,315,0.0,0.0,97,0.00,CLR,,0.00,WeatherDisplay:10.37,2013-02-14 06:37:00,
2013-02-14 00:42:00,30.9,30.4,28.55,NW,315,0.0,0.0,98,0.00,CLR,,0.00,WeatherDisplay:10.37,2013-02-14 06:42:00,
2013-02-14 00:47:00,30.9,30.4,28.55,West,270,0.0,0.0,98,0.00,CLR,,0.00,WeatherDisplay:10.37,2013-02-14 06:47:00,
2013-02-14 00:52:00,30.7,30.2,28.55,NW,315,0.0,0.0,98,0.00,CLR,,0.00,WeatherDisplay:10.37,2013-02-14 06:52:00,
2013-02-14 00:57:00,30.9,30.4,28.55,NW,315,0.0,0.0,98,0.00,CLR,,0.00,WeatherDisplay:10.37,2013-02-14 06:57:00,
2013-02-14 01:02:00,30.9,30.4,28.55,NW,315,0.0,0.0,98,0.00,CLR,,0.00,WeatherDisplay:10.37,2013-02-14 07:02:00,
2013-02-14 01:07:00,30.9,30.4,28.55,NW,315,0.0,0.0,98,0.00,CLR,,0.00,WeatherDisplay:10.37,2013-02-14 07:07:00,
2013-02-14 01:12:00,30.7,30.2,28.55,West,270,0.0,0.0,98,0.00,CLR,,0.00,WeatherDisplay:10.37,2013-02-14 07:12:00,
2013-02-14 01:17:00,30.7,30.2,28.55,West,270,0.0,0.0,98,0.00,CLR,,0.00,WeatherDisplay:10.37,2013-02-14 07:17:00,
2013-02-14 01:22:00,30.7,30.2,28.55,West,270,0.0,0.0,98,0.00,CLR,,0.00,WeatherDisplay:10.37,2013-02-14 07:22:00,
2013-02-14 01:27:00,30.7,30.2,28.55,West,270,0.0,0.0,98,0.00,CLR,,0.00,WeatherDisplay:10.37,2013-02-14 07:27:00,
2013-02-14 01:32:00,30.7,30.2,28.55,West,270,0.0,0.0,98,0.00,CLR,,0.00,WeatherDisplay:10.37,2013-02-14 07:32:00,
2013-02-14 01:37:00,30.6,30.1,28.55,West,270,0.0,0.0,98,0.00,CLR,,0.00,WeatherDisplay:10.37,2013-02-14 07:37:00,
2013-02-14 01:42:00,30.6,30.1,28.55,West,270,0.0,0.0,98,0.00,CLR,,0.00,WeatherDisplay:10.37,2013-02-14 07:42:00,
2013-02-14 01:47:00,30.6,30.1,28.55,West,270,0.0,0.0,98,0.00,CLR,,0.00,WeatherDisplay:10.37,2013-02-14 07:47:00,
2013-02-14 01:52:00,30.6,30.1,28.55,West,270,0.0,0.0,98,0.00,CLR,,0.00,WeatherDisplay:10.37,2013-02-14 07:52:00,
2013-02-14 01:57:00,30.6,30.1,28.56,West,270,0.0,0.0,98,0.00,CLR,,0.00,WeatherDisplay:10.37,2013-02-14 07:57:00,
2013-02-14 02:02:00,30.6,30.1,28.55,West,270,0.0,0.0,98,0.00,CLR,,0.00,WeatherDisplay:10.37,2013-02-14 08:02:00,
2013-02-14 02:07:00,30.6,30.1,28.55,West,270,0.0,0.0,98,0.00,CLR,,0.00,WeatherDisplay:10.37,2013-02-14 08:07:00,
2013-02-14 02:12:00,30.4,29.9,28.56,NW,315,0.0,0.0,98,0.00,CLR,,0.00,WeatherDisplay:10.37,2013-02-14 08:12:00,
2013-02-14 02:17:00,30.4,29.9,28.56,NW,315,0.0,0.0,98,0.00,CLR,,0.00,WeatherDisplay:10.37,2013-02-14 08:17:00,
2013-02-14 02:22:00,30.4,29.9,28.56,West,270,0.0,0.0,98,0.00,CLR,,0.00,WeatherDisplay:10.37,2013-02-14 08:22:00,
2013-02-14 02:27:00,30.4,29.9,28.56,West,270,0.0,0.0,98,0.00,CLR,,0.00,WeatherDisplay:10.37,2013-02-14 08:27:00,
2013-02-14 02:32:00,30.4,30.1,28.56,West,270,0.0,0.0,99,0.00,CLR,,0.00,WeatherDisplay:10.37,2013-02-14 08:32:00,
2013-02-14 02:37:00,30.4,30.1,28.56,West,270,0.0,0.0,99,0.00,CLR,,0.00,WeatherDisplay:10.37,2013-02-14 08:37:00,
2013-02-14 02:42:00,30.4,30.1,28.56,West,270,0.0,0.0,99,0.00,CLR,,0.00,WeatherDisplay:10.37,2013-02-14 08:42:00,
2013-02-14 02:47:00,30.4,30.1,28.56,West,270,0.0,0.0,99,0.00,CLR,,0.00,WeatherDisplay:10.37,2013-02-14 08:47:00,
2013-02-14 02:52:00,30.4,30.1,28.56,West,270,0.0,0.0,99,0.00,CLR,,0.00,WeatherDisplay:10.37,2013-02-14 08:52:00,
2013-02-14 02:57:00,30.4,30.1,28.56,NW,315,0.0,0.0,99,0.00,CLR,,0.00,WeatherDisplay:10.37,2013-02-14 08:57:00,
2013-02-14 03:02:00,30.2,30.0,28.56,WNW,292,0.0,0.0,99,0.00,CLR,,0.00,WeatherDisplay:10.37,2013-02-14 09:02:00,
2013-02-14 03:07:00,30.2,30.0,28.56,WNW,292,0.0,0.0,99,0.00,CLR,,0.00,WeatherDisplay:10.37,2013-02-14 09:07:00,
2013-02-14 03:12:00,30.0,29.8,28.57,NW,315,0.0,0.0,99,0.00,CLR,,0.00,WeatherDisplay:10.37,2013-02-14 09:12:00,
2013-02-14 03:17:00,29.8,29.6,28.57,West,270,0.0,0.0,99,0.00,CLR,,0.00,WeatherDisplay:10.37,2013-02-14 09:17:00,
2013-02-14 03:22:00,29.7,29.4,28.57,West,270,0.0,0.0,99,0.00,CLR,,0.00,WeatherDisplay:10.37,2013-02-14 09:22:00,
2013-02-14 03:27:00,29.7,29.4,28.57,NW,315,0.0,0.0,99,0.00,CLR,,0.00,WeatherDisplay:10.37,2013-02-14 09:27:00,
2013-02-14 03:32:00,29.5,29.2,28.57,West,270,0.0,0.0,99,0.00,CLR,,0.00,WeatherDisplay:10.37,2013-02-14 09:32:00,
2013-02-14 03:37:00,29.5,29.2,28.57,West,270,0.0,0.0,99,0.00,CLR,,0.00,WeatherDisplay:10.37,2013-02-14 09:37:00,
2013-02-14 03:42:00,29.3,29.1,28.58,NW,315,0.0,0.0,99,0.00,CLR,,0.00,WeatherDisplay:10.37,2013-02-14 09:42:00,
2013-02-14 03:47:00,29.3,29.1,28.58,West,270,0.0,0.0,99,0.00,CLR,,0.00,WeatherDisplay:10.37,2013-02-14 09:47:00,
2013-02-14 03:52:00,29.1,28.9,28.58,West,270,0.0,0.0,99,0.00,CLR,,0.00,WeatherDisplay:10.37,2013-02-14 09:52:00,
2013-02-14 03:57:00,28.9,28.7,28.58,West,270,0.0,0.0,99,0.00,CLR,,0.00,WeatherDisplay:10.37,2013-02-14 09:57:00,
2013-02-14 04:02:00,28.8,28.5,28.58,NW,315,0.0,0.0,99,0.00,CLR,,0.00,WeatherDisplay:10.37,2013-02-14 10:02:00,
2013-02-14 04:07:00,28.8,28.5,28.59,NW,315,0.0,0.0,99,0.00,CLR,,0.00,WeatherDisplay:10.37,2013-02-14 10:07:00,
2013-02-14 04:12:00,28.6,28.3,28.59,West,270,0.0,0.0,99,0.00,CLR,,0.00,WeatherDisplay:10.37,2013-02-14 10:12:00,
2013-02-14 04:17:00,28.4,28.2,28.60,WSW,248,0.0,1.6,99,0.00,CLR,,0.00,WeatherDisplay:10.37,2013-02-14 10:17:00,
2013-02-14 04:22:00,28.2,28.0,28.60,NW,315,4.6,4.6,99,0.00,CLR,,0.00,WeatherDisplay:10.37,2013-02-14 10:22:00,
2013-02-14 04:27:00,27.9,27.6,28.60,NW,315,4.6,4.6,99,0.00,CLR,,0.00,WeatherDisplay:10.37,2013-02-14 10:27:00,
2013-02-14 04:32:00,27.7,27.4,28.60,West,270,2.3,0.0,99,0.00,CLR,,0.00,WeatherDisplay:10.37,2013-02-14 10:32:00,
2013-02-14 04:37:00,27.5,27.3,28.61,NW,315,4.6,4.6,99,0.00,CLR,,0.00,WeatherDisplay:10.37,2013-02-14 10:37:00,
2013-02-14 04:42:00,27.5,27.3,28.61,NW,315,3.5,3.5,99,0.00,CLR,,0.00,WeatherDisplay:10.37,2013-02-14 10:42:00,
2013-02-14 04:47:00,27.5,27.3,28.62,NW,315,1.1,0.0,99,0.00,CLR,,0.00,WeatherDisplay:10.37,2013-02-14 10:47:00,
2013-02-14 04:52:00,27.5,27.3,28.62,NW,315,1.1,0.0,99,0.00,CLR,,0.00,WeatherDisplay:10.37,2013-02-14 10:52:00,
2013-02-14 04:57:00,27.3,27.1,28.62,West,270,1.1,0.0,99,0.00,CLR,,0.00,WeatherDisplay:10.37,2013-02-14 10:57:00,
2013-02-14 05:02:00,27.3,27.1,28.62,NW,315,1.1,0.0,99,0.00,CLR,,0.00,WeatherDisplay:10.37,2013-02-14 11:02:00,
2013-02-14 05:07:00,27.3,27.1,28.63,NW,315,1.1,0.0,99,0.00,CLR,,0.00,WeatherDisplay:10.37,2013-02-14 11:07:00,
2013-02-14 05:12:00,27.3,27.1,28.62,NW,315,1.1,0.0,99,0.00,CLR,,0.00,WeatherDisplay:10.37,2013-02-14 11:12:00,
2013-02-14 05:17:00,27.3,27.1,28.62,West,270,1.1,0.0,99,0.00,CLR,,0.00,WeatherDisplay:10.37,2013-02-14 11:17:00,
2013-02-14 05:22:00,27.1,26.7,28.63,NW,315,1.1,0.0,98,0.00,CLR,,0.00,WeatherDisplay:10.37,2013-02-14 11:22:00,
2013-02-14 05:27:00,27.0,26.5,28.63,NW,315,1.1,0.0,98,0.00,CLR,,0.00,WeatherDisplay:10.37,2013-02-14 11:27:00,
2013-02-14 05:32:00,27.0,26.5,28.63,NW,315,1.1,0.0,98,0.00,CLR,,0.00,WeatherDisplay:10.37,2013-02-14 11:32:00,
2013-02-14 05:37:00,27.0,26.5,28.64,NW,315,4.6,4.6,98,0.00,CLR,,0.00,WeatherDisplay:10.37,2013-02-14 11:37:00,
2013-02-14 05:42:00,27.0,26.5,28.64,WNW,292,3.5,3.5,98,0.00,CLR,,0.00,WeatherDisplay:10.37,2013-02-14 11:42:00,
2013-02-14 05:47:00,27.0,26.5,28.64,West,270,3.5,3.5,98,0.00,CLR,,0.00,WeatherDisplay:10.37,2013-02-14 11:47:00,
2013-02-14 05:52:00,27.0,26.2,28.65,NW,315,3.5,3.5,97,0.00,CLR,,0.00,WeatherDisplay:10.37,2013-02-14 11:52:00,
2013-02-14 05:57:00,26.8,26.0,28.65,West,270,3.5,3.5,97,0.00,CLR,,0.00,WeatherDisplay:10.37,2013-02-14 11:57:00,
2013-02-14 06:02:00,26.8,26.0,28.65,NW,315,5.8,5.8,97,0.00,CLR,,0.00,WeatherDisplay:10.37,2013-02-14 12:02:00,
2013-02-14 06:07:00,26.8,26.0,28.65,NW,315,5.8,5.8,97,0.00,CLR,,0.00,WeatherDisplay:10.37,2013-02-14 12:07:00,
2013-02-14 06:12:00,26.8,25.5,28.66,NW,315,4.6,4.6,95,0.00,CLR,,0.00,WeatherDisplay:10.37,2013-02-14 12:12:00,
2013-02-14 06:17:00,26.6,25.4,28.66,West,270,5.8,5.8,95,0.00,CLR,,0.00,WeatherDisplay:10.37,2013-02-14 12:17:00,
2013-02-14 06:22:00,26.6,25.1,28.66,NW,315,5.8,5.8,94,0.00,CLR,,0.00,WeatherDisplay:10.37,2013-02-14 12:22:00,
2013-02-14 06:27:00,26.6,24.8,28.66,NW,315,4.6,4.6,93,0.00,CLR,,0.00,WeatherDisplay:10.37,2013-02-14 12:27:00,
2013-02-14 06:32:00,26.6,24.3,28.67,NW,315,1.1,0.0,91,0.00,CLR,,0.00,WeatherDisplay:10.37,2013-02-14 12:32:00,
2013-02-14 06:37:00,26.8,24.5,28.67,NW,315,4.6,4.6,91,0.00,CLR,,0.00,WeatherDisplay:10.37,2013-02-14 12:37:00,
2013-02-14 06:42:00,26.8,24.5,28.68,NW,315,3.5,3.5,91,0.00,CLR,,0.00,WeatherDisplay:10.37,2013-02-14 12:42:00,
2013-02-14 06:47:00,26.6,23.8,28.68,NW,315,5.4,5.4,89,0.00,CLR,,0.00,WeatherDisplay:10.37,2013-02-14 12:47:00,
2013-02-14 06:52:00,26.6,23.8,28.68,West,270,3.5,3.5,89,0.00,CLR,,0.00,WeatherDisplay:10.37,2013-02-14 12:52:00,
2013-02-14 06:57:00,26.2,23.4,28.68,SW,225,1.1,0.0,89,0.00,CLR,,0.00,WeatherDisplay:10.37,2013-02-14 12:57:00,
2013-02-14 07:02:00,25.9,22.8,28.69,West,270,0.0,0.0,88,0.00,CLR,,0.00,WeatherDisplay:10.37,2013-02-14 13:02:00,
2013-02-14 07:07:00,25.9,22.8,28.69,West,270,0.0,0.0,88,0.00,CLR,,0.00,WeatherDisplay:10.37,2013-02-14 13:07:00,
2013-02-14 07:12:00,25.3,22.8,28.69,West,270,1.1,0.0,90,0.00,CLR,,0.00,WeatherDisplay:10.37,2013-02-14 13:12:00,
2013-02-14 07:17:00,25.3,22.8,28.69,NW,315,3.5,0.0,90,0.00,CLR,,0.00,WeatherDisplay:10.37,2013-02-14 13:17:00,
2013-02-14 07:22:00,25.2,22.6,28.69,West,270,1.1,0.0,90,0.00,CLR,,0.00,WeatherDisplay:10.37,2013-02-14 13:22:00,
2013-02-14 07:27:00,25.0,22.5,28.70,NW,315,1.1,1.1,90,0.00,CLR,,0.00,WeatherDisplay:10.37,2013-02-14 13:27:00,
2013-02-14 07:32:00,25.0,22.7,28.70,NW,315,1.1,0.0,91,0.00,CLR,,0.00,WeatherDisplay:10.37,2013-02-14 13:32:00,
2013-02-14 07:37:00,25.2,22.9,28.70,SW,225,1.1,0.0,91,0.00,CLR,,0.00,WeatherDisplay:10.37,2013-02-14 13:37:00,
2013-02-14 07:42:00,25.3,22.8,28.70,SE,135,1.1,0.0,90,0.00,CLR,,0.00,WeatherDisplay:10.37,2013-02-14 13:42:00,
2013-02-14 07:47:00,25.7,23.2,28.71,NW,315,3.5,3.5,90,0.00,CLR,,0.00,WeatherDisplay:10.37,2013-02-14 13:47:00,
2013-02-14 07:52:00,25.9,23.4,28.71,NW,315,1.1,0.0,90,0.00,CLR,,0.00,WeatherDisplay:10.37,2013-02-14 13:52:00,
2013-02-14 07:57:00,26.2,23.4,28.71,West,270,1.1,0.0,89,0.00,CLR,,0.00,WeatherDisplay:10.37,2013-02-14 13:57:00,
2013-02-14 08:02:00,26.2,23.4,28.71,NW,315,3.5,3.5,89,0.00,CLR,,0.00,WeatherDisplay:10.37,2013-02-14 14:02:00,
2013-02-14 08:07:00,26.2,23.4,28.72,NW,315,3.5,3.5,89,0.00,CLR,,0.00,WeatherDisplay:10.37,2013-02-14 14:07:00,
2013-02-14 08:12:00,27.3,24.0,28.72,NW,315,3.5,3.5,87,0.00,CLR,,0.00,WeatherDisplay:10.37,2013-02-14 14:12:00,
2013-02-14 08:17:00,27.1,23.5,28.72,NW,315,1.1,0.0,86,0.00,CLR,,0.00,WeatherDisplay:10.37,2013-02-14 14:17:00,
2013-02-14 08:22:00,27.0,23.3,28.72,NW,315,1.1,0.0,86,0.00,CLR,,0.00,WeatherDisplay:10.37,2013-02-14 14:22:00,
2013-02-14 08:27:00,27.0,23.3,28.73,North,0,3.5,0.0,86,0.00,CLR,,0.00,WeatherDisplay:10.37,2013-02-14 14:27:00,
2013-02-14 08:32:00,27.0,23.3,28.72,NW,315,5.8,5.8,86,0.00,CLR,,0.00,WeatherDisplay:10.37,2013-02-14 14:32:00,
2013-02-14 08:37:00,27.0,23.3,28.72,NW,315,8.1,8.1,86,0.00,CLR,,0.00,WeatherDisplay:10.37,2013-02-14 14:37:00,
2013-02-14 08:42:00,27.1,23.8,28.72,NW,315,5.8,5.8,87,0.00,CLR,,0.00,WeatherDisplay:10.37,2013-02-14 14:42:00,
2013-02-14 08:47:00,27.1,23.5,28.73,NW,315,6.9,6.9,86,0.00,CLR,,0.00,WeatherDisplay:10.37,2013-02-14 14:47:00,
2013-02-14 08:52:00,27.5,23.9,28.73,North,0,8.3,8.3,86,0.00,CLR,,0.00,WeatherDisplay:10.37,2013-02-14 14:52:00,
2013-02-14 08:57:00,27.5,23.9,28.74,North,0,8.1,8.1,86,0.00,CLR,,0.00,WeatherDisplay:10.37,2013-02-14 14:57:00,
2013-02-14 09:02:00,27.7,24.0,28.74,NW,315,3.5,3.5,86,0.00,CLR,,0.00,WeatherDisplay:10.37,2013-02-14 15:02:00,
2013-02-14 09:07:00,27.7,24.0,28.74,NW,315,3.5,3.5,86,0.00,CLR,,0.00,WeatherDisplay:10.37,2013-02-14 15:07:00,
2013-02-14 09:12:00,28.2,24.3,28.74,NW,315,5.8,5.8,85,0.00,CLR,,0.00,WeatherDisplay:10.37,2013-02-14 15:12:00,
2013-02-14 09:17:00,28.6,24.6,28.74,NW,315,8.1,8.1,85,0.00,CLR,,0.00,WeatherDisplay:10.37,2013-02-14 15:17:00,
2013-02-14 09:22:00,28.8,24.5,28.74,NW,315,8.1,8.1,84,0.00,CLR,,0.00,WeatherDisplay:10.37,2013-02-14 15:22:00,
2013-02-14 09:27:00,29.3,24.8,28.75,NW,315,4.6,4.6,83,0.00,CLR,,0.00,WeatherDisplay:10.37,2013-02-14 15:27:00,
2013-02-14 09:32:00,29.5,24.7,28.75,NW,315,8.1,8.1,82,0.00,CLR,,0.00,WeatherDisplay:10.37,2013-02-14 15:32:00,
2013-02-14 09:37:00,29.5,24.7,28.75,West,270,8.1,8.1,82,0.00,CLR,,0.00,WeatherDisplay:10.37,2013-02-14 15:37:00,
2013-02-14 09:42:00,29.7,24.5,28.75,NW,315,5.8,5.8,81,0.00,CLR,,0.00,WeatherDisplay:10.37,2013-02-14 15:42:00,
2013-02-14 09:47:00,29.7,24.5,28.75,WNW,292,4.6,4.6,81,0.00,CLR,,0.00,WeatherDisplay:10.37,2013-02-14 15:47:00,
2013-02-14 09:52:00,30.2,24.8,28.75,NNW,338,6.9,6.9,80,0.00,CLR,,0.00,WeatherDisplay:10.37,2013-02-14 15:52:00,
2013-02-14 09:57:00,30.7,25.3,28.75,NW,315,4.6,4.6,80,0.00,CLR,,0.00,WeatherDisplay:10.37,2013-02-14 15:57:00,
2013-02-14 10:02:00,31.1,25.3,28.76,NW,315,4.6,4.6,79,0.00,CLR,,0.00,WeatherDisplay:10.37,2013-02-14 16:02:00,
2013-02-14 10:07:00,31.1,25.3,28.76,NW,315,4.6,4.6,79,0.00,CLR,,0.00,WeatherDisplay:10.37,2013-02-14 16:07:00,
2013-02-14 10:12:00,32.2,25.5,28.76,NNW,338,5.8,5.8,76,0.00,CLR,,0.00,WeatherDisplay:10.37,2013-02-14 16:12:00,
2013-02-14 10:17:00,32.5,25.8,28.76,NW,315,6.9,6.9,76,0.00,CLR,,0.00,WeatherDisplay:10.37,2013-02-14 16:17:00,
2013-02-14 10:22:00,32.9,25.5,28.76,NNW,338,5.8,7.6,74,0.00,CLR,,0.00,WeatherDisplay:10.37,2013-02-14 16:22:00,
2013-02-14 10:27:00,32.0,24.6,28.76,North,0,9.2,9.2,74,0.00,CLR,,0.00,WeatherDisplay:10.37,2013-02-14 16:27:00,
2013-02-14 10:32:00,31.6,24.6,28.76,NW,315,5.8,5.8,75,0.00,CLR,,0.00,WeatherDisplay:10.37,2013-02-14 16:32:00,
2013-02-14 10:37:00,31.8,24.8,28.76,NW,315,5.8,5.8,75,0.00,CLR,,0.00,WeatherDisplay:10.37,2013-02-14 16:37:00,
2013-02-14 10:42:00,32.0,25.0,28.76,NW,315,9.2,9.2,75,0.00,CLR,,0.00,WeatherDisplay:10.37,2013-02-14 16:42:00,
2013-02-14 10:47:00,32.4,25.0,28.77,North,0,8.1,8.1,74,0.00,CLR,,0.00,WeatherDisplay:10.37,2013-02-14 16:47:00,
2013-02-14 10:52:00,33.1,25.7,28.77,NW,315,5.8,5.8,74,0.00,CLR,,0.00,WeatherDisplay:10.37,2013-02-14 16:52:00,
2013-02-14 10:57:00,33.8,25.7,28.77,North,0,6.9,6.9,72,0.00,CLR,,0.00,WeatherDisplay:10.37,2013-02-14 16:57:00,
2013-02-14 11:02:00,34.0,25.2,28.77,North,0,6.9,6.9,70,0.00,CLR,,0.00,WeatherDisplay:10.37,2013-02-14 17:02:00,
2013-02-14 11:07:00,34.0,25.2,28.77,North,0,6.9,6.9,70,0.00,CLR,,0.00,WeatherDisplay:10.37,2013-02-14 17:07:00,
2013-02-14 11:12:00,34.0,24.2,28.76,North,0,8.1,8.1,67,0.00,CLR,,0.00,WeatherDisplay:10.37,2013-02-14 17:12:00,
2013-02-14 11:17:00,34.7,24.1,28.77,North,0,10.7,10.7,65,0.00,CLR,,0.00,WeatherDisplay:10.37,2013-02-14 17:17:00,
2013-02-14 11:22:00,37.0,24.8,28.77,NW,315,8.1,8.1,61,0.00,CLR,,0.00,WeatherDisplay:10.37,2013-02-14 17:22:00,
2013-02-14 11:27:00,36.5,23.9,28.77,North,0,5.8,5.8,60,0.00,CLR,,0.00,WeatherDisplay:10.37,2013-02-14 17:27:00,
2013-02-14 11:32:00,36.7,23.7,28.77,NW,315,6.9,6.9,59,0.00,CLR,,0.00,WeatherDisplay:10.37,2013-02-14 17:32:00,
2013-02-14 11:37:00,36.3,23.3,28.77,NNW,338,9.2,9.2,59,0.00,CLR,,0.00,WeatherDisplay:10.37,2013-02-14 17:37:00,
2013-02-14 11:42:00,36.0,23.4,28.78,WSW,248,9.2,9.2,60,0.00,CLR,,0.00,WeatherDisplay:10.37,2013-02-14 17:42:00,
2013-02-14 11:47:00,36.0,23.0,28.78,NW,315,10.4,10.4,59,0.00,CLR,,0.00,WeatherDisplay:10.37,2013-02-14 17:47:00,
2013-02-14 11:52:00,35.8,22.8,28.77,NW,315,6.9,6.9,59,0.00,CLR,,0.00,WeatherDisplay:10.37,2013-02-14 17:52:00,
2013-02-14 11:57:00,35.1,22.6,28.77,NW,315,12.7,12.7,60,0.00,CLR,,0.00,WeatherDisplay:10.37,2013-02-14 17:57:00,
2013-02-14 12:02:00,35.1,22.6,28.77,North,0,6.0,6.0,60,0.00,CLR,,0.00,WeatherDisplay:10.37,2013-02-14 18:02:00,
2013-02-14 12:07:00,35.1,22.6,28.78,North,0,5.8,5.8,60,0.00,CLR,,0.00,WeatherDisplay:10.37,2013-02-14 18:07:00,
2013-02-14 12:12:00,34.9,22.4,28.77,North,0,10.4,10.4,60,0.00,CLR,,0.00,WeatherDisplay:10.37,2013-02-14 18:12:00,
2013-02-14 12:17:00,34.5,22.4,28.78,NW,315,5.8,5.8,61,0.01,RA,,0.01,WeatherDisplay:10.37,2013-02-14 18:17:00,
2013-02-14 12:22:00,34.9,22.8,28.77,NW,315,5.8,5.8,61,0.01,RA,,0.01,WeatherDisplay:10.37,2013-02-14 18:22:00,
2013-02-14 12:27:00,35.4,22.9,28.78,North,0,4.6,4.6,60,0.01,CLR,,0.01,WeatherDisplay:10.37,2013-02-14 18:27:00,
2013-02-14 12:32:00,35.1,20.9,28.78,NW,315,13.8,13.8,56,0.01,CLR,,0.01,WeatherDisplay:10.37,2013-02-14 18:32:00,
2013-02-14 12:37:00,34.5,21.7,28.78,NW,315,10.4,10.4,59,0.01,CLR,,0.01,WeatherDisplay:10.37,2013-02-14 18:37:00,
2013-02-14 12:42:00,34.7,22.2,28.78,North,0,8.1,8.1,60,0.01,CLR,,0.01,WeatherDisplay:10.37,2013-02-14 18:42:00,
2013-02-14 12:47:00,34.7,22.2,28.78,NW,315,10.4,10.4,60,0.01,CLR,,0.01,WeatherDisplay:10.37,2013-02-14 18:47:00,
2013-02-14 12:52:00,34.3,22.3,28.78,WNW,292,8.1,8.1,61,0.01,CLR,,0.01,WeatherDisplay:10.37,2013-02-14 18:52:00,
2013-02-14 12:57:00,34.3,21.9,28.79,NW,315,9.2,9.2,60,0.01,CLR,,0.01,WeatherDisplay:10.37,2013-02-14 18:57:00,
2013-02-14 13:02:00,34.2,22.1,28.79,North,0,8.1,8.1,61,0.01,CLR,,0.01,WeatherDisplay:10.37,2013-02-14 19:02:00,
2013-02-14 13:07:00,34.2,22.1,28.78,North,0,8.1,8.1,61,0.01,CLR,,0.01,WeatherDisplay:10.37,2013-02-14 19:07:00,
2013-02-14 13:12:00,35.2,22.3,28.79,North,0,8.1,8.1,59,0.01,CLR,,0.01,WeatherDisplay:10.37,2013-02-14 19:12:00,
2013-02-14 13:17:00,35.1,21.8,28.78,North,0,5.8,5.8,58,0.00,CLR,,0.01,WeatherDisplay:10.37,2013-02-14 19:17:00,
2013-02-14 13:22:00,35.6,21.9,28.79,NW,315,5.8,5.8,57,0.00,CLR,,0.01,WeatherDisplay:10.37,2013-02-14 19:22:00,
2013-02-14 13:27:00,35.8,22.0,28.79,NNW,338,6.9,6.9,57,0.00,CLR,,0.01,WeatherDisplay:10.37,2013-02-14 19:27:00,
2013-02-14 13:32:00,35.6,21.0,28.79,North,0,9.2,9.2,55,0.00,CLR,,0.01,WeatherDisplay:10.37,2013-02-14 19:32:00,
2013-02-14 13:37:00,36.0,22.2,28.79,NNW,338,5.8,5.8,57,0.00,CLR,,0.01,WeatherDisplay:10.37,2013-02-14 19:37:00,
2013-02-14 13:42:00,35.8,21.6,28.79,NW,315,8.1,8.1,56,0.00,CLR,,0.01,WeatherDisplay:10.37,2013-02-14 19:42:00,
2013-02-14 13:47:00,35.6,22.3,28.80,West,270,8.1,8.1,58,0.00,CLR,,0.01,WeatherDisplay:10.37,2013-02-14 19:47:00,
2013-02-14 13:52:00,35.4,22.1,28.80,North,0,9.2,9.2,58,0.00,CLR,,0.01,WeatherDisplay:10.37,2013-02-14 19:52:00,
2013-02-14 13:57:00,35.8,22.4,28.80,NE,45,5.8,5.8,58,0.00,CLR,,0.01,WeatherDisplay:10.37,2013-02-14 19:57:00,
2013-02-14 14:02:00,35.8,21.6,28.80,NW,315,8.1,8.1,56,0.00,CLR,,0.01,WeatherDisplay:10.37,2013-02-14 20:02:00,
2013-02-14 14:07:00,35.8,21.6,28.80,NW,315,8.1,8.1,56,0.00,CLR,,0.01,WeatherDisplay:10.37,2013-02-14 20:07:00,
2013-02-14 14:12:00,34.5,22.4,28.80,NW,315,4.6,4.6,61,0.00,CLR,,0.01,WeatherDisplay:10.37,2013-02-14 20:12:00,
2013-02-14 14:17:00,34.3,22.3,28.80,North,0,5.8,5.8,61,0.00,CLR,,0.01,WeatherDisplay:10.37,2013-02-14 20:17:00,
2013-02-14 14:22:00,34.0,22.3,28.81,North,0,6.9,6.9,62,0.00,CLR,,0.01,WeatherDisplay:10.37,2013-02-14 20:22:00,
2013-02-14 14:27:00,33.1,21.8,28.80,NW,315,10.4,10.4,63,0.00,CLR,,0.01,WeatherDisplay:10.37,2013-02-14 20:27:00,
2013-02-14 14:32:00,32.5,22.1,28.81,NW,315,8.1,8.1,65,0.00,CLR,,0.01,WeatherDisplay:10.37,2013-02-14 20:32:00,
2013-02-14 14:37:00,32.2,22.1,28.82,West,270,10.4,10.4,66,0.00,CLR,,0.01,WeatherDisplay:10.37,2013-02-14 20:37:00,
2013-02-14 14:42:00,32.0,22.3,28.82,North,0,8.1,8.1,67,0.00,CLR,,0.01,WeatherDisplay:10.37,2013-02-14 20:42:00,
2013-02-14 14:47:00,32.0,22.6,28.81,North,0,10.4,10.4,68,0.00,CLR,,0.01,WeatherDisplay:10.37,2013-02-14 20:47:00,
2013-02-14 14:52:00,32.0,23.0,28.82,North,0,10.4,10.4,69,0.00,CLR,,0.01,WeatherDisplay:10.37,2013-02-14 20:52:00,
2013-02-14 14:57:00,32.0,22.6,28.82,North,0,12.7,12.7,68,0.00,CLR,,0.01,WeatherDisplay:10.37,2013-02-14 20:57:00,
2013-02-14 15:02:00,31.8,22.8,28.83,North,0,11.5,11.5,69,0.00,CLR,,0.01,WeatherDisplay:10.37,2013-02-14 21:02:00,
2013-02-14 15:07:00,31.8,22.8,28.83,North,0,11.5,11.5,69,0.00,CLR,,0.01,WeatherDisplay:10.37,2013-02-14 21:07:00,
2013-02-14 15:12:00,31.8,22.5,28.83,NW,315,11.5,11.5,68,0.00,CLR,,0.01,WeatherDisplay:10.37,2013-02-14 21:12:00,
2013-02-14 15:17:00,31.6,22.6,28.84,NW,315,9.2,9.2,69,0.00,CLR,,0.01,WeatherDisplay:10.37,2013-02-14 21:17:00,
2013-02-14 15:22:00,30.9,22.6,28.84,NW,315,11.5,11.5,71,0.00,CLR,,0.01,WeatherDisplay:10.37,2013-02-14 21:22:00,
2013-02-14 15:27:00,30.6,22.3,28.84,NW,315,13.8,13.8,71,0.00,CLR,,0.01,WeatherDisplay:10.37,2013-02-14 21:27:00,
2013-02-14 15:32:00,30.2,22.3,28.84,NW,315,11.5,11.5,72,0.00,CLR,,0.01,WeatherDisplay:10.37,2013-02-14 21:32:00,
2013-02-14 15:37:00,30.0,21.8,28.84,NNW,338,16.1,16.1,71,0.00,CLR,,0.01,WeatherDisplay:10.37,2013-02-14 21:37:00,
2013-02-14 15:42:00,29.8,21.9,28.85,NW,315,12.7,12.7,72,0.00,CLR,,0.01,WeatherDisplay:10.37,2013-02-14 21:42:00,
2013-02-14 15:47:00,29.5,21.6,28.85,NW,315,13.8,13.8,72,0.00,CLR,,0.01,WeatherDisplay:10.37,2013-02-14 21:47:00,
2013-02-14 15:52:00,29.1,20.9,28.85,NW,315,12.7,12.7,71,0.00,CLR,,0.01,WeatherDisplay:10.37,2013-02-14 21:52:00,
2013-02-14 15:57:00,28.9,20.4,28.86,North,1,12.7,12.7,70,0.00,CLR,,0.01,WeatherDisplay:10.37,2013-02-14 21:57:00,
2013-02-14 16:02:00,28.9,20.0,28.86,North,0,12.7,12.7,69,0.00,CLR,,0.01,WeatherDisplay:10.37,2013-02-14 22:02:00,
2013-02-14 16:07:00,29.1,20.2,28.87,North,0,12.7,12.7,69,0.00,CLR,,0.01,WeatherDisplay:10.37,2013-02-14 22:07:00,
2013-02-14 16:12:00,28.9,19.7,28.87,NE,45,9.2,9.2,68,0.00,CLR,,0.01,WeatherDisplay:10.37,2013-02-14 22:12:00,
2013-02-14 16:17:00,28.9,19.7,28.87,NNW,338,11.5,11.5,68,0.00,CLR,,0.01,WeatherDisplay:10.37,2013-02-14 22:17:00,
2013-02-14 16:22:00,28.9,19.7,28.87,NNW,338,8.1,8.1,68,0.00,CLR,,0.01,WeatherDisplay:10.37,2013-02-14 22:22:00,
2013-02-14 16:27:00,28.8,19.5,28.87,NW,315,10.4,10.4,68,0.00,CLR,,0.01,WeatherDisplay:10.37,2013-02-14 22:27:00,
2013-02-14 16:32:00,28.8,19.9,28.88,North,0,5.8,5.8,69,0.00,CLR,,0.01,WeatherDisplay:10.37,2013-02-14 22:32:00,
2013-02-14 16:37:00,28.8,19.5,28.88,NNW,338,10.4,10.4,68,0.00,CLR,,0.01,WeatherDisplay:10.37,2013-02-14 22:37:00,
2013-02-14 16:42:00,28.4,19.5,28.88,NNW,338,8.1,8.1,69,0.00,CLR,,0.01,WeatherDisplay:10.37,2013-02-14 22:42:00,
2013-02-14 16:47:00,28.4,18.8,28.88,North,0,10.4,10.4,67,0.00,CLR,,0.01,WeatherDisplay:10.37,2013-02-14 22:47:00,
2013-02-14 16:52:00,28.2,19.0,28.88,North,0,10.4,10.4,68,0.00,CLR,,0.01,WeatherDisplay:10.37,2013-02-14 22:52:00,
2013-02-14 16:57:00,28.2,19.0,28.89,North,0,9.2,9.2,68,0.00,CLR,,0.01,WeatherDisplay:10.37,2013-02-14 22:57:00,
2013-02-14 17:02:00,28.2,19.3,28.89,North,0,6.9,6.9,69,0.00,CLR,,0.01,WeatherDisplay:10.37,2013-02-14 23:02:00,
2013-02-14 17:07:00,28.2,19.3,28.89,North,0,6.9,6.9,69,0.00,CLR,,0.01,WeatherDisplay:10.37,2013-02-14 23:07:00,
2013-02-14 17:12:00,27.5,18.3,28.90,North,0,10.4,10.4,68,0.00,CLR,,0.01,WeatherDisplay:10.37,2013-02-14 23:12:00,
2013-02-14 17:17:00,27.1,18.0,28.90,North,0,10.7,10.7,68,0.00,CLR,,0.01,WeatherDisplay:10.37,2013-02-14 23:17:00,
2013-02-14 17:22:00,26.8,18.0,28.90,NW,315,5.8,5.8,69,0.00,CLR,,0.01,WeatherDisplay:10.37,2013-02-14 23:22:00,
2013-02-14 17:27:00,26.6,17.8,28.91,North,0,8.1,8.1,69,0.00,CLR,,0.01,WeatherDisplay:10.37,2013-02-14 23:27:00,
2013-02-14 17:32:00,26.2,17.1,28.91,NW,315,8.1,8.1,68,0.00,CLR,,0.01,WeatherDisplay:10.37,2013-02-14 23:32:00,
2013-02-14 17:37:00,26.1,16.9,28.91,WNW,292,9.2,9.2,68,0.00,CLR,,0.01,WeatherDisplay:10.37,2013-02-14 23:37:00,
2013-02-14 17:42:00,25.9,17.1,28.91,NW,315,4.6,4.6,69,0.00,CLR,,0.01,WeatherDisplay:10.37,2013-02-14 23:42:00,
2013-02-14 17:47:00,25.5,16.1,28.92,NW,315,10.4,10.4,67,0.00,CLR,,0.01,WeatherDisplay:10.37,2013-02-14 23:47:00,
2013-02-14 17:52:00,25.2,15.7,28.92,NNW,338,6.9,6.9,67,0.00,CLR,,0.01,WeatherDisplay:10.37,2013-02-14 23:52:00,
2013-02-14 17:57:00,25.0,14.9,28.93,North,0,10.4,10.4,65,0.00,CLR,,0.01,WeatherDisplay:10.37,2013-02-14 23:57:00,
2013-02-14 18:02:00,24.8,15.0,28.93,NW,315,10.4,10.4,66,0.00,CLR,,0.01,WeatherDisplay:10.37,2013-02-15 00:02:00,
2013-02-14 18:07:00,24.6,15.9,28.93,North,0,8.1,8.1,69,0.00,CLR,,0.01,WeatherDisplay:10.37,2013-02-15 00:07:00,
2013-02-14 18:12:00,23.7,15.7,28.94,North,0,8.1,8.1,71,0.00,CLR,,0.01,WeatherDisplay:10.37,2013-02-15 00:12:00,
2013-02-14 18:17:00,23.7,16.0,28.94,North,0,10.4,10.4,72,0.00,CLR,,0.01,WeatherDisplay:10.37,2013-02-15 00:17:00,
2013-02-14 18:22:00,23.9,15.9,28.95,North,0,10.4,10.4,71,0.00,CLR,,0.01,WeatherDisplay:10.37,2013-02-15 00:22:00,
2013-02-14 18:27:00,23.5,14.9,28.95,North,0,9.2,9.2,69,0.00,CLR,,0.01,WeatherDisplay:10.37,2013-02-15 00:27:00,
2013-02-14 18:32:00,23.4,14.4,28.95,NW,315,6.9,6.9,68,0.00,CLR,,0.01,WeatherDisplay:10.37,2013-02-15 00:32:00,
2013-02-14 18:37:00,23.4,14.4,28.96,NW,315,6.9,6.9,68,0.00,CLR,,0.01,WeatherDisplay:10.37,2013-02-15 00:37:00,
2013-02-14 18:42:00,23.0,13.3,28.96,NW,315,9.2,9.2,66,0.00,CLR,,0.01,WeatherDisplay:10.37,2013-02-15 00:42:00,
2013-02-14 18:47:00,22.8,12.8,28.96,North,0,11.5,11.5,65,0.00,CLR,,0.01,WeatherDisplay:10.37,2013-02-15 00:47:00,
2013-02-14 18:52:00,22.6,12.6,28.97,North,0,10.4,10.4,65,0.00,CLR,,0.01,WeatherDisplay:10.37,2013-02-15 00:52:00,
2013-02-14 18:57:00,22.5,12.1,28.97,North,0,12.7,12.7,64,0.00,CLR,,0.01,WeatherDisplay:10.37,2013-02-15 00:57:00,
2013-02-14 19:02:00,22.3,11.6,28.98,WNW,292,12.7,12.7,63,0.00,CLR,,0.01,WeatherDisplay:10.37,2013-02-15 01:02:00,
2013-02-14 19:07:00,21.6,9.8,28.98,North,0,10.4,10.4,60,0.00,CLR,,0.01,WeatherDisplay:10.37,2013-02-15 01:07:00,
2013-02-14 19:12:00,21.4,8.1,28.98,North,0,17.3,17.3,56,0.00,CLR,,0.01,WeatherDisplay:10.37,2013-02-15 01:12:00,
2013-02-14 19:17:00,21.0,7.4,28.98,NW,315,12.7,12.7,55,0.00,CLR,,0.01,WeatherDisplay:10.37,2013-02-15 01:17:00,
2013-02-14 19:22:00,20.7,7.0,28.98,NW,315,13.8,13.8,55,0.00,CLR,,0.01,WeatherDisplay:10.37,2013-02-15 01:22:00,
2013-02-14 19:27:00,20.3,7.1,28.98,North,0,12.7,12.7,56,0.00,CLR,,0.01,WeatherDisplay:10.37,2013-02-15 01:27:00,
2013-02-14 19:32:00,20.1,6.9,28.99,NW,315,16.1,16.1,56,0.00,CLR,,0.01,WeatherDisplay:10.37,2013-02-15 01:32:00,
2013-02-14 19:37:00,20.1,6.9,28.99,NW,315,16.1,16.1,56,0.00,CLR,,0.01,WeatherDisplay:10.37,2013-02-15 01:37:00,
2013-02-14 19:42:00,19.4,7.4,28.99,NNW,338,12.7,12.7,59,0.00,CLR,,0.01,WeatherDisplay:10.37,2013-02-15 01:42:00,
2013-02-14 19:47:00,19.2,7.2,28.99,NW,315,8.1,8.1,59,0.00,CLR,,0.01,WeatherDisplay:10.37,2013-02-15 01:47:00,
2013-02-14 19:52:00,19.0,7.4,29.00,North,0,10.4,10.4,60,0.00,CLR,,0.01,WeatherDisplay:10.37,2013-02-15 01:52:00,
2013-02-14 19:57:00,18.9,7.6,29.00,North,0,8.1,8.1,61,0.00,CLR,,0.01,WeatherDisplay:10.37,2013-02-15 01:57:00,
2013-02-14 20:02:00,18.7,7.4,29.00,NW,315,6.9,6.9,61,0.00,CLR,,0.01,WeatherDisplay:10.37,2013-02-15 02:02:00,
2013-02-14 20:07:00,18.7,7.4,29.00,NW,315,6.9,6.9,61,0.00,CLR,,0.01,WeatherDisplay:10.37,2013-02-15 02:07:00,
2013-02-14 20:12:00,18.0,6.8,29.01,NW,315,6.9,6.9,61,0.00,CLR,,0.01,WeatherDisplay:10.37,2013-02-15 02:12:00,
2013-02-14 20:17:00,18.1,6.9,29.00,North,0,8.1,8.1,61,0.00,CLR,,0.01,WeatherDisplay:10.37,2013-02-15 02:17:00,
2013-02-14 20:22:00,18.0,6.8,29.01,NW,315,5.8,5.8,61,0.00,CLR,,0.01,WeatherDisplay:10.37,2013-02-15 02:22:00,
2013-02-14 20:27:00,18.0,6.4,29.01,North,0,9.2,9.2,60,0.00,CLR,,0.01,WeatherDisplay:10.37,2013-02-15 02:27:00,
2013-02-14 20:32:00,17.8,6.6,29.01,NW,315,5.8,5.8,61,0.00,CLR,,0.01,WeatherDisplay:10.37,2013-02-15 02:32:00,
2013-02-14 20:37:00,17.6,6.4,29.02,NW,315,4.6,4.6,61,0.00,CLR,,0.01,WeatherDisplay:10.37,2013-02-15 02:37:00,
2013-02-14 20:42:00,16.9,6.1,29.02,North,0,5.8,5.8,62,0.00,CLR,,0.01,WeatherDisplay:10.37,2013-02-15 02:42:00,
2013-02-14 20:47:00,16.7,5.9,29.02,NW,315,3.5,3.5,62,0.00,CLR,,0.01,WeatherDisplay:10.37,2013-02-15 02:47:00,
2013-02-14 20:52:00,16.5,6.1,29.02,NW,315,5.8,5.8,63,0.00,CLR,,0.01,WeatherDisplay:10.37,2013-02-15 02:52:00,
2013-02-14 20:57:00,16.3,5.9,29.02,NW,315,3.5,3.5,63,0.00,CLR,,0.01,WeatherDisplay:10.37,2013-02-15 02:57:00,
2013-02-14 21:02:00,16.3,5.6,29.02,North,0,4.6,4.6,62,0.00,CLR,,0.01,WeatherDisplay:10.37,2013-02-15 03:02:00,
2013-02-14 21:07:00,16.3,5.6,29.02,North,0,4.6,4.6,62,0.00,CLR,,0.01,WeatherDisplay:10.37,2013-02-15 03:07:00,
2013-02-14 21:12:00,15.4,5.1,29.02,North,0,3.5,3.5,63,0.00,CLR,,0.01,WeatherDisplay:10.37,2013-02-15 03:12:00,
2013-02-14 21:17:00,15.3,5.3,29.03,NW,315,1.1,1.1,64,0.00,CLR,,0.01,WeatherDisplay:10.37,2013-02-15 03:17:00,
2013-02-14 21:22:00,15.1,5.1,29.04,West,270,2.3,2.3,64,0.00,CLR,,0.01,WeatherDisplay:10.37,2013-02-15 03:22:00,
2013-02-14 21:27:00,15.1,5.4,29.04,West,270,3.5,0.0,65,0.00,CLR,,0.01,WeatherDisplay:10.37,2013-02-15 03:27:00,
2013-02-14 21:32:00,15.1,5.1,29.03,North,0,3.5,3.5,64,0.00,CLR,,0.01,WeatherDisplay:10.37,2013-02-15 03:32:00,
2013-02-14 21:37:00,14.7,5.1,29.03,SW,225,1.1,0.0,65,0.00,CLR,,0.01,WeatherDisplay:10.37,2013-02-15 03:37:00,
2013-02-14 21:42:00,14.4,4.7,29.04,NW,315,3.5,0.0,65,0.00,CLR,,0.01,WeatherDisplay:10.37,2013-02-15 03:42:00,
2013-02-14 21:47:00,14.5,5.2,29.04,NW,315,5.8,5.8,66,0.00,CLR,,0.01,WeatherDisplay:10.37,2013-02-15 03:47:00,
2013-02-14 21:52:00,14.9,5.2,29.04,NW,315,4.6,4.6,65,0.00,CLR,,0.01,WeatherDisplay:10.37,2013-02-15 03:52:00,
2013-02-14 21:57:00,14.9,4.9,29.04,NW,315,4.6,4.6,64,0.00,CLR,,0.01,WeatherDisplay:10.37,2013-02-15 03:57:00,
2013-02-14 22:02:00,14.9,5.2,29.05,NW,315,4.6,4.6,65,0.00,CLR,,0.01,WeatherDisplay:10.37,2013-02-15 04:02:00,
2013-02-14 22:07:00,14.9,5.2,29.04,NW,315,4.6,4.6,65,0.00,CLR,,0.01,WeatherDisplay:10.37,2013-02-15 04:07:00,
2013-02-14 22:12:00,14.7,4.4,29.05,NW,315,4.6,4.6,63,0.00,CLR,,0.01,WeatherDisplay:10.37,2013-02-15 04:12:00,
2013-02-14 22:17:00,14.5,4.2,29.05,NW,315,4.6,4.6,63,0.00,CLR,,0.01,WeatherDisplay:10.37,2013-02-15 04:17:00,
2013-02-14 22:22:00,14.4,3.7,29.06,NW,315,4.6,4.6,62,0.00,CLR,,0.01,WeatherDisplay:10.37,2013-02-15 04:22:00,
2013-02-14 22:27:00,14.2,3.5,29.06,West,270,4.6,4.6,62,0.00,CLR,,0.01,WeatherDisplay:10.37,2013-02-15 04:27:00,
2013-02-14 22:32:00,14.2,3.5,29.06,NNW,338,4.6,4.6,62,0.00,CLR,,0.01,WeatherDisplay:10.37,2013-02-15 04:32:00,
2013-02-14 22:37:00,14.0,3.4,29.06,West,270,2.3,0.0,62,0.00,CLR,,0.01,WeatherDisplay:10.37,2013-02-15 04:37:00,
2013-02-14 22:42:00,13.6,3.0,29.06,SW,225,2.3,2.3,62,0.00,CLR,,0.01,WeatherDisplay:10.37,2013-02-15 04:42:00,
2013-02-14 22:47:00,13.5,2.8,29.06,SW,225,2.3,2.3,62,0.00,CLR,,0.01,WeatherDisplay:10.37,2013-02-15 04:47:00,
2013-02-14 22:52:00,13.1,2.5,29.07,SW,225,2.3,2.3,62,0.00,CLR,,0.01,WeatherDisplay:10.37,2013-02-15 04:52:00,
2013-02-14 22:57:00,12.6,1.6,29.06,SW,225,2.3,2.3,61,0.00,CLR,,0.01,WeatherDisplay:10.37,2013-02-15 04:57:00,
2013-02-14 23:00:00,12.6,2.0,29.07,SW,225,5.8,5.8,62,0.00,CLR,,0.01,WeatherDisplay:10.37,2013-02-15 05:00:00,
2013-02-14 23:05:00,12.6,2.0,29.07,SW,225,2.3,2.3,62,0.00,CLR,,0.01,WeatherDisplay:10.37,2013-02-15 05:05:00,
2013-02-14 23:10:00,13.3,3.0,29.06,NW,315,5.8,5.8,63,0.00,CLR,,0.01,WeatherDisplay:10.37,2013-02-15 05:10:00,
2013-02-14 23:15:00,13.6,3.0,29.06,North,0,6.9,6.9,62,0.00,CLR,,0.01,WeatherDisplay:10.37,2013-02-15 05:15:00,
2013-02-14 23:20:00,14.0,3.4,29.07,NW,315,6.9,6.9,62,0.00,CLR,,0.01,WeatherDisplay:10.37,2013-02-15 05:20:00,
2013-02-14 23:25:00,14.0,3.0,29.07,NW,315,5.8,5.8,61,0.00,CLR,,0.01,WeatherDisplay:10.37,2013-02-15 05:25:00,
2013-02-14 23:30:00,14.0,3.0,29.07,NW,315,4.6,4.6,61,0.00,CLR,,0.01,WeatherDisplay:10.37,2013-02-15 05:30:00,
2013-02-14 23:35:00,13.5,2.5,29.07,NW,315,3.5,3.5,61,0.00,CLR,,0.01,WeatherDisplay:10.37,2013-02-15 05:35:00,
2013-02-14 23:40:00,12.7,2.2,29.07,NW,315,2.3,2.3,62,0.00,CLR,,0.01,WeatherDisplay:10.37,2013-02-15 05:40:00,
2013-02-14 23:45:00,12.0,1.8,29.07,NW,315,1.1,0.0,63,0.00,CLR,,0.01,WeatherDisplay:10.37,2013-02-15 05:45:00,
2013-02-14 23:50:00,11.3,1.5,29.07,NW,315,1.1,0.0,64,0.00,CLR,,0.01,WeatherDisplay:10.37,2013-02-15 05:50:00,
2013-02-14 23:55:00,10.6,1.1,29.07,NW,315,1.1,0.0,65,0.00,CLR,,0.01,WeatherDisplay:10.37,2013-02-15 05:55:00,